Ketchikan, AK

9:19 AM AKDT on October 16, 2018 (GMT -0800)
Ketchikan International

Weather History for PAKT - October, 2018

Change the Weather History Date:

Thursday, October 4, 2018

  Actual Average Record
Temperature  
Mean Temperature 44 °F -  
Max Temperature 53 °F 53 °F 62 °F (1952)
Min Temperature 36 °F 43 °F 30 °F (1954)
Degree Days  
Heating Degree Days 20    
Moisture  
Dew Point 38 °F    
Average Humidity 79    
Maximum Humidity 93    
Minimum Humidity 54    
Precipitation  
Precipitation 0.00 in - - ()
Sea Level Pressure  
Sea Level Pressure 30.01 in    
Wind  
Wind Speed 3 mph (SE)    
Max Wind Speed 9 mph    
Max Gust Speed -    
Visibility 10 miles    
Events      
Averages and records for this station are not official NWS values.
T = Trace of Precipitation, MM = Missing Value Source: NWS Daily Summary

Daily Weather History Graph

Daily Weather History Graph

Search for Another Location

Airport or City:

Astronomy

Oct. 04, 2018 Rise Set
Actual Time 6:55 AM AKDT 6:14 PM AKDT
Civil Twilight 6:19 AM AKDT 6:50 PM AKDT
Nautical Twilight 5:36 AM AKDT 7:32 PM AKDT
Astronomical Twilight 4:53 AM AKDT 8:16 PM AKDT
Moon 12:33 AM AKDT (10/4) 4:53 PM AKDT (10/4)
Length of Visible Light 12h 31m
Length of Day
11h 18m
Waning Crescent, 24% of the Moon is Illuminated
Oct 4
Waning Crescent
Oct 8
New
Oct 16
First Quarter
Oct 24
Full
Oct 31
Last Quarter

Hourly Weather History & Observations

Time (AKDT) Temp. Windchill Dew Point Humidity Pressure Visibility Wind Dir Wind Speed Gust Speed Precip Events Conditions
12:53 AM 36.0 °F - 33.1 °F 89% 30.01 in 10.0 mi Calm Calm - N/A   Scattered Clouds
1:23 AM 36.0 °F - 34.0 °F 93% 30.01 in 10.0 mi Calm Calm - N/A   Mostly Cloudy
1:53 AM 37.0 °F - 34.0 °F 89% 30.01 in 10.0 mi Calm Calm - N/A   Mostly Cloudy
2:42 AM 41.0 °F 38.0 °F 37.9 °F 89% 30.01 in 10.0 mi SE 4.6 mph - N/A   Scattered Clouds
2:53 AM 39.9 °F - 37.0 °F 89% 30.02 in 10.0 mi Calm Calm - N/A   Partly Cloudy
3:53 AM 36.0 °F - 34.0 °F 93% 30.01 in 10.0 mi Calm Calm - N/A   Partly Cloudy
4:13 AM 37.0 °F 34.5 °F 35.1 °F 93% 30.01 in 10.0 mi South 3.5 mph - N/A   Mostly Cloudy
4:53 AM 39.0 °F 36.8 °F 36.0 °F 89% 30.01 in 10.0 mi SSE 3.5 mph - N/A   Partly Cloudy
5:53 AM 39.9 °F 35.8 °F 37.0 °F 89% 30.01 in 10.0 mi SE 5.8 mph - N/A   Mostly Cloudy
6:01 AM 39.0 °F 34.8 °F 36.0 °F 89% 30.00 in 10.0 mi SE 5.8 mph - N/A   Mostly Cloudy
6:53 AM 39.9 °F 35.8 °F 37.0 °F 89% 30.01 in 10.0 mi SE 5.8 mph - N/A   Mostly Cloudy
7:53 AM 41.0 °F 39.0 °F 39.0 °F 93% 30.02 in 10.0 mi SSE 3.5 mph - N/A   Mostly Cloudy
8:53 AM 43.0 °F 41.3 °F 39.0 °F 86% 30.02 in 10.0 mi ESE 3.5 mph - N/A   Mostly Cloudy
9:05 AM 44.1 °F 42.5 °F 39.0 °F 82% 30.02 in 10.0 mi SE 3.5 mph - N/A   Mostly Cloudy
9:12 AM 44.1 °F 41.5 °F 39.0 °F 82% 30.01 in 10.0 mi ESE 4.6 mph - N/A   Mostly Cloudy
9:53 AM 46.4 °F 44.3 °F 39.2 °F 76% 30.03 in 10.0 mi ESE 4.6 mph - N/A   Scattered Clouds
10:53 AM 48.2 °F - 39.2 °F 71% 30.03 in 10.0 mi SE 5.8 mph - N/A   Scattered Clouds
11:53 AM 51.8 °F - 39.2 °F 62% 30.02 in 10.0 mi ESE 8.1 mph - N/A   Scattered Clouds
12:53 PM 51.8 °F - 37.4 °F 58% 30.02 in 10.0 mi ESE 8.1 mph - N/A   Scattered Clouds
1:53 PM 51.8 °F - 37.4 °F 58% 30.01 in 10.0 mi SE 5.8 mph - N/A   Scattered Clouds
2:53 PM 53.6 °F - 37.4 °F 54% 30.01 in 10.0 mi ESE 9.2 mph - N/A   Scattered Clouds
3:53 PM 51.8 °F - 37.4 °F 58% 30.01 in 10.0 mi SSE 5.8 mph - N/A   Clear
4:53 PM 51.8 °F - 39.2 °F 62% 30.00 in 10.0 mi SSE 3.5 mph - N/A   Clear
5:53 PM 48.2 °F - 39.2 °F 71% 30.00 in 10.0 mi SE 4.6 mph - N/A   Clear
6:53 PM 46.9 °F - 39.9 °F 77% 30.00 in 10.0 mi South 3.5 mph - N/A   Scattered Clouds
7:53 PM 46.0 °F 44.8 °F 39.9 °F 79% 30.00 in 10.0 mi SE 3.5 mph - N/A   Clear
8:53 PM 45.0 °F - 37.9 °F 76% 30.00 in 10.0 mi Calm Calm - N/A   Clear
9:53 PM 44.1 °F - 39.0 °F 82% 30.00 in 10.0 mi Calm Calm - N/A   Clear
10:53 PM 44.1 °F - 37.9 °F 79% 30.01 in 10.0 mi Calm Calm - N/A   Mostly Cloudy
11:53 PM 44.1 °F - 37.9 °F 79% 30.02 in 10.0 mi Calm Calm - N/A   Overcast